Location: Black Mesa
(34.2281°N, 106.6189°W)
Time: 21:54:39
(UTC+00:00)

Daily predictions for brighter satellites

Satellite Brightness Start Highest point End
(mag) Time Altitude Azimuth Time Altitude Azimuth Time Altitude Azimuth
IRS-1D 3.8 12:00:55 10° NNE 12:06:14 72° ESE 12:11:28 10° S
Cosmos 1295 Rocket 4.4 12:02:03 10° SSW 12:08:18 63° W 12:14:32 10° N
Nadezhda 3 Rocket 4.3 12:05:56 10° N 12:12:11 67° E 12:18:28 10° SSE
CZ-4 R/B 4.1 12:10:52 10° NNE 12:15:45 72° ESE 12:20:40 10° S
NOAA 12 3.9 12:13:49 10° N 12:19:04 84° WNW 12:24:17 10° SSW
Delta 2 Rocket 3.3 12:21:12 55° ENE 12:21:12 55° ENE 12:23:57 10° E
Cosmos 1461 4.4 12:25:56 21° N 12:25:56 21° N 12:27:27 10° NNE
Cosmos 44 3.4 12:27:01 32° NNW 12:29:34 84° WSW 12:34:54 10° SSE
NOSS 2-2 (D) 3.6 12:27:40 10° SSW 12:31:42 57° ESE 12:34:55 10° NE
Cosmos 1763 Rocket 4.2 12:28:43 10° N 12:33:39 50° ENE 12:38:36 10° SE
Cosmos 2154 Rocket 4.1 12:28:13 10° SSW 12:34:18 50° W 12:40:22 10° N
COSMO-SKYMED 1 2.8 12:34:34 10° SSE 12:38:37 64° ENE 12:42:42 10° N
Cosmos 1190 Rocket 4.4 12:35:36 10° S 12:40:43 65° ESE 12:45:51 10° NNE
Cosmos 2228 Rocket 4.1 12:42:36 10° N 12:46:49 46° E 12:51:00 10° SSE
Helios 1A Rocket 4.2 12:45:50 10° SE 12:48:50 32° ENE 12:51:51 10° N
SKYMED 2 3.7 12:45:26 10° S 12:49:39 52° W 12:53:11 14° NNW
BREEZE M DEB (TANK) 3.9 12:49:45 19° NNW 12:52:14 47° NE 13:01:31 10° ESE
USA 32 4.1 12:47:22 10° SSW 12:52:27 52° W 12:57:34 10° N
Cosmos 1484 Rocket 2.7 12:50:14 10° NNE 12:53:39 68° ESE 12:57:05 10° S
NOSS 8 (E) 4.4 12:53:04 26° NNW 12:54:49 90° W 12:58:55 10° SSE
Molniya-1 2.9 12:58:41 27° WSW 12:59:48 48° NW 13:03:22 10° NNE
Cosmos 2369 Rocket 2.3 12:54:20 10° SSW 13:00:00 83° ESE 13:05:44 10° NNE
NOSS 2-2 (E) 2.9 12:57:01 10° SSW 13:01:05 84° WNW 13:04:18 10° NNE
Cosmos 2341 Rocket 4.1 12:57:06 10° S 13:03:28 90° E 13:09:53 10° N
USA 307 2.5 13:01:38 23° NW 13:04:04 74° SW 13:07:45 10° SE
Cosmos 1470 Rocket 3.5 13:00:51 10° S 13:05:07 88° E 13:09:25 10° N
Cosmos 1339 Rocket 4.5 12:59:19 10° NNW 13:05:19 59° W 13:11:21 10° S
CZ-3C R/B 4.5 12:58:36 10° SW 13:07:12 32° S 20:54:59 10° SE
ATLAS CENTAUR R/B 2.9 13:08:37 11° SW 13:08:37 11° SW 13:08:52 10° SW
BREEZE-M DEB (TANK) 3.2 13:03:44 17° WNW 13:08:22 41° WSW 13:11:07 10° SSE
Cosmos 1953 1.9 13:04:57 10° S 13:08:36 82° W 13:12:16 10° N
Tiangong -0.6 13:08:52 19° NW 13:10:01 24° N 13:12:42 10° NE
SL-8 Rocket 4.0 13:06:21 10° S 13:12:39 75° W 13:18:55 10° N
Atlas Centaur 2 2.8 13:10:32 14° W 13:14:35 46° S 13:20:34 10° ESE
Okean 1-7 2.9 13:10:30 10° NNW 13:14:37 62° W 13:18:44 10° S
SL-8 R/B 4.3 13:13:23 15° W 13:16:51 38° NNW 13:21:16 10° NE
ARIANE 5 R/B 4.1 13:13:13 10° NNE 13:17:56 39° E 13:22:35 10° SSE
SeaSat 1 3.2 13:15:02 10° NNE 13:19:51 56° ESE 13:24:38 10° S
Gblst 52 Del rocket 4.1 13:16:28 12° NW 13:21:31 79° SW 13:27:14 10° SE
Cosmos 1862 Rocket 3.9 13:18:02 10° NNW 13:22:05 41° W 13:26:06 10° SSW
Cosmos 864 Rocket 4.4 13:16:18 10° SSW 13:22:24 69° W 13:28:31 10° N
Cosmos 2297 3.6 13:17:54 10° SSW 13:23:29 66° WNW 13:29:05 10° NNE
USA 234 4.4 13:18:50 10° NE 13:25:07 47° SE 13:31:22 10° SSW
Meteor 1-15 Rocket 4.3 13:20:14 10° SSW 13:25:57 60° W 13:31:47 10° N
Cosmos 371 Rocket 3.7 13:23:02 10° SW 13:27:33 40° WNW 13:32:03 10° N
CBERS-1 4.0 13:25:21 10° N 13:30:23 63° WNW 13:35:23 10° SSW
NOSS 3-2 (A) 3.2 13:27:14 10° SW 13:31:52 48° NW 13:37:12 10° NNE
Cosmos 2263 4.2 13:26:26 10° SSW 13:32:11 72° WNW 13:37:57 10° NNE
Cosmos 1633 Rocket 4.0 13:29:16 10° SW 13:32:52 25° WNW 13:36:28 10° NNW
SJ 16-02 2.2 13:30:28 10° SW 13:34:04 27° WNW 13:37:42 10° N
Cosmos 1707 Rocket 4.4 13:33:11 10° NNW 13:36:56 29° W 13:40:43 10° SSW
Cosmos 1821 Rocket 4.1 13:32:32 10° S 13:38:55 81° W 13:45:16 10° N
Cosmos 1869 Rocket 4.2 13:35:40 10° S 13:40:02 61° E 13:44:25 10° NNE
Landsat 7 3.7 13:37:56 10° N 13:42:34 68° WNW 13:47:09 10° SSW
Cosmos 468 Rocket 4.0 13:39:29 10° NNW 13:44:35 65° WSW 13:49:43 10° S
CENTAUR R/B 3.7 13:41:04 10° W 13:44:58 19° NW 13:49:27 10° N
GEOS 3 Rocket 4.5 13:40:49 10° SE 13:45:48 50° NE 13:50:54 10° NNW
ATLAS 2AS CENTAUR R/B 3.4 13:40:43 10° NW 13:46:35 33° WSW 13:52:30 10° S
Cosmos 968 Rocket 3.7 13:42:00 10° SSW 13:47:13 83° ESE 13:52:26 10° NNE
